START_TIME,STEP,MOV.,H8,t_acc.,H43,t_acc.,M25,t_acc.,H9,t_acc.
1980-11-16 00:00:18.100 ,3,0,0.,12.0,0.,12.0,0.,12.0,0.,12.0
1980-11-16 00:00:30.100 ,3,0,0.,12.0,0.,12.0,0.,12.0,0.,12.0
1980-11-16 00:00:42.100 ,4,0,0.,12.0,0.,12.0,0.,12.0,0.,12.0
1980-11-16 00:00:54.100 ,4,0,0.,12.0,0.,12.0,0.,12.0,0.,12.0
1980-11-16 00:01:06.100 ,4,0,0.,12.0,0.,12.0,0.,12.0,0.,12.0
1980-11-16 00:01:18.100 ,4,0,0.,12.0,0.,12.0,0.,12.0,0.,12.0
1980-11-16 00:01:30.100 ,5,0,0.,12.0,0.,12.0,0.,12.0,0.,12.0
1980-11-16 00:01:42.100 ,5,0,0.,12.0,0.,12.0,0.,12.0,0.,12.0
1980-11-16 00:01:54.100 ,5,0,0.,12.0,0.,12.0,0.,12.0,0.,12.0
1980-11-16 00:02:06.100 ,5,0,0.,12.0,0.,12.0,0.,12.0,0.,12.0
1980-11-16 00:02:18.100 ,6,0,0.,12.0,0.,12.0,0.,12.0,0.,12.0
1980-11-16 00:02:30.100 ,6,0,0.,12.0,0.,12.0,0.,12.0,0.,12.0
1980-11-16 00:02:42.100 ,6,0,0.,12.0,0.,12.0,0.,12.0,0.,12.0
1980-11-16 00:02:54.100 ,6,0,0.,12.0,0.,12.0,0.,12.0,0.,12.0
1980-11-16 00:03:06.100 ,7,0,0.,12.0,0.,12.0,0.,12.0,0.,12.0
1980-11-16 00:03:18.100 ,7,0,0.,12.0,0.,12.0,0.,12.0,0.,12.0
1980-11-16 00:03:30.100 ,7,0,0.,12.0,0.,12.0,0.,12.0,0.,12.0
1980-11-16 00:03:42.100 ,7,0,0.,12.0,0.,12.0,0.,12.0,0.,12.0
1980-11-16 00:03:54.100 ,7,0,0.,12.0,0.,12.0,0.,12.0,0.,12.0
1980-11-16 00:04:06.100 ,7,0,0.,12.0,0.,12.0,0.,12.0,0.,12.0
1980-11-16 00:04:18.100 ,7,0,0.,12.0,0.,12.0,0.,12.0,0.,12.0
1980-11-16 00:04:30.100 ,7,0,0.,12.0,0.,12.0,0.,12.0,0.,12.0
1980-11-16 00:04:42.100 ,6,0,0.,12.0,0.,12.0,0.,12.0,0.,12.0
1980-11-16 00:04:54.100 ,6,0,0.,12.0,0.,12.0,0.,12.0,0.,12.0
1980-11-16 00:05:06.100 ,6,0,0.,12.0,0.,12.0,0.,12.0,0.,12.0
1980-11-16 00:05:18.100 ,6,0,0.,12.0,0.,12.0,0.,12.0,0.,12.0
1980-11-16 00:05:30.100 ,5,0,0.,12.0,0.,12.0,0.,12.0,0.,12.0
1980-11-16 00:05:42.100 ,5,0,0.,12.0,0.,12.0,0.,12.0,0.,12.0
1980-11-16 00:05:54.100 ,5,0,0.,12.0,0.,12.0,0.,12.0,0.,12.0
1980-11-16 00:06:06.100 ,5,0,0.,12.0,0.,12.0,0.,12.0,0.,12.0
1980-11-16 00:06:18.100 ,0,0,0.,12.0,0.,12.0,0.,12.0,0.,12.0
1980-11-16 00:06:30.100 ,0,0,0.,12.0,0.,12.0,0.,12.0,0.,12.0
1980-11-16 00:07:06.100 ,3,0,0.,12.0,0.,12.0,0.,12.0,0.,12.0
1980-11-16 00:07:18.100 ,3,0,0.,12.0,0.,12.0,0.,12.0,0.,12.0
1980-11-16 00:07:30.100 ,3,0,0.,12.0,0.,12.0,0.,12.0,0.,12.0
1980-11-16 00:07:42.100 ,3,0,0.,12.0,0.,12.0,0.,12.0,0.,12.0
1980-11-16 00:07:54.100 ,2,0,0.,12.0,0.,12.0,0.,12.0,0.,12.0
1980-11-16 00:08:06.100 ,2,0,0.,12.0,0.,12.0,0.,12.0,0.,12.0
1980-11-16 00:08:18.100 ,2,0,0.,12.0,0.,12.0,0.,12.0,0.,12.0
1980-11-16 00:08:30.100 ,2,0,0.,12.0,0.,12.0,0.,12.0,0.,12.0
1980-11-16 00:08:42.100 ,1,0,0.,12.0,0.,12.0,0.,12.0,0.,12.0
1980-11-16 00:08:54.100 ,1,0,0.,12.0,0.,12.0,0.,12.0,0.,12.0
1980-11-16 00:09:06.100 ,1,0,0.,12.0,0.,12.0,0.,12.0,0.,12.0
1980-11-16 00:09:18.100 ,1,0,0.,12.0,0.,12.0,0.,12.0,0.,12.0
1980-11-16 00:09:30.100 ,0,0,0.,12.0,0.,12.0,0.,12.0,0.,12.0
1980-11-16 00:09:42.100 ,0,0,0.,12.0,0.,12.0,0.,12.0,0.,12.0
1980-11-16 00:09:54.100 ,0,0,0.,12.0,0.,12.0,0.,12.0,0.,12.0
1980-11-16 00:10:06.100 ,0,0,0.,12.0,0.,12.0,0.,12.0,0.,12.0
1980-11-16 00:10:18.100 ,0,0,0.,12.0,0.,12.0,0.,12.0,0.,12.0
1980-11-16 00:10:30.100 ,0,0,0.,12.0,0.,12.0,0.,12.0,0.,12.0
1980-11-16 00:10:42.100 ,0,0,0.,12.0,0.,12.0,0.,12.0,0.,12.0
1980-11-16 00:10:54.100 ,0,0,0.,12.0,0.,12.0,0.,12.0,0.,12.0
1980-11-16 00:11:06.100 ,1,0,0.,12.0,0.,12.0,0.,12.0,0.,12.0
1980-11-16 00:11:18.100 ,1,0,0.,12.0,0.,12.0,0.,12.0,0.,12.0
1980-11-16 00:11:30.100 ,1,0,0.,12.0,0.,12.0,0.,12.0,0.,12.0
1980-11-16 00:11:42.100 ,1,0,0.,12.0,0.,12.0,0.,12.0,0.,12.0
1980-11-16 00:11:54.100 ,2,0,0.,12.0,0.,12.0,0.,12.0,0.,12.0
1980-11-16 00:12:06.100 ,2,0,0.,12.0,0.,12.0,0.,12.0,0.,12.0
1980-11-16 00:12:18.100 ,2,0,0.,12.0,0.,12.0,0.,12.0,0.,12.0
1980-11-16 00:12:30.100 ,2,0,0.,12.0,0.,12.0,0.,12.0,0.,12.0
1980-11-16 00:12:42.100 ,3,0,0.,12.0,0.,12.0,0.,12.0,0.,12.0
1980-11-16 00:12:54.100 ,3,0,0.,12.0,0.,12.0,0.,12.0,0.,12.0
1980-11-16 00:13:06.100 ,3,0,0.,12.0,0.,12.0,0.,12.0,0.,12.0
1980-11-16 00:13:18.100 ,3,0,0.,12.0,0.,12.0,0.,12.0,0.,12.0
1980-11-16 00:13:30.100 ,4,0,0.,12.0,0.,12.0,0.,12.0,0.,12.0
1980-11-16 00:13:42.100 ,4,0,0.,12.0,0.,12.0,0.,12.0,0.,12.0
1980-11-16 00:13:54.100 ,4,0,0.,12.0,0.,12.0,0.,12.0,0.,12.0
1980-11-16 00:14:06.100 ,4,0,0.,12.0,0.,12.0,0.,12.0,0.,12.0
1980-11-16 00:14:18.100 ,5,0,0.,12.0,0.,12.0,0.,12.0,0.,12.0
1980-11-16 00:14:30.100 ,5,0,0.,12.0,0.,12.0,0.,12.0,0.,12.0
1980-11-16 00:14:42.100 ,5,0,0.,12.0,0.,12.0,0.,12.0,0.,12.0
1980-11-16 00:14:54.100 ,5,0,0.,12.0,0.,12.0,0.,12.0,0.,12.0
1980-11-16 00:15:06.100 ,6,0,0.,12.0,0.,12.0,0.,12.0,0.,12.0
1980-11-16 00:15:18.100 ,6,0,0.,12.0,0.,12.0,0.,12.0,0.,12.0
1980-11-16 00:15:30.100 ,6,0,0.,12.0,0.,12.0,0.,12.0,0.,12.0
1980-11-16 00:15:42.100 ,6,0,0.,12.0,0.,12.0,0.,12.0,0.,12.0
1980-11-16 00:15:54.100 ,7,0,0.,12.0,0.,12.0,0.,12.0,0.,12.0
1980-11-16 00:16:06.100 ,7,0,0.,12.0,0.,12.0,0.,12.0,0.,12.0
1980-11-16 00:16:18.100 ,7,0,0.,12.0,0.,12.0,0.,12.0,0.,12.0
1980-11-16 00:16:30.100 ,7,0,0.,12.0,0.,12.0,0.,12.0,0.,12.0
1980-11-16 00:16:42.100 ,7,0,0.,12.0,0.,12.0,0.,12.0,0.,12.0
1980-11-16 00:16:54.100 ,7,0,0.,12.0,0.,12.0,0.,12.0,0.,12.0
1980-11-16 00:17:06.100 ,7,0,0.,12.0,0.,12.0,0.,12.0,0.,12.0
1980-11-16 00:17:18.100 ,7,0,0.,12.0,0.,12.0,0.,12.0,0.,12.0
1980-11-16 00:17:30.100 ,6,0,0.,12.0,0.,12.0,0.,12.0,0.,12.0
1980-11-16 00:17:42.100 ,6,0,0.,12.0,0.,12.0,0.,12.0,0.,12.0
1980-11-16 00:17:54.100 ,6,0,0.,12.0,0.,12.0,0.,12.0,0.,12.0
1980-11-16 00:18:06.100 ,6,0,0.,12.0,0.,12.0,0.,12.0,0.,12.0
1980-11-16 00:18:18.100 ,5,0,0.,12.0,0.,12.0,0.,12.0,0.,12.0
1980-11-16 00:18:30.100 ,5,0,0.,12.0,0.,12.0,0.,12.0,0.,12.0
1980-11-16 00:18:42.100 ,5,0,0.,12.0,0.,12.0,0.,12.0,0.,12.0
1980-11-16 00:18:54.100 ,5,0,0.,12.0,0.,12.0,0.,12.0,0.,12.0
1980-11-16 00:19:06.100 ,4,0,0.,12.0,0.,12.0,0.,12.0,0.,12.0
1980-11-16 00:19:18.100 ,4,0,0.,12.0,0.,12.0,0.,12.0,0.,12.0
1980-11-16 00:19:30.100 ,4,0,0.,12.0,0.,12.0,0.,12.0,0.,12.0
1980-11-16 00:19:42.100 ,4,0,0.,12.0,0.,12.0,0.,12.0,0.,12.0
1980-11-16 00:19:54.100 ,3,0,0.,12.0,0.,12.0,0.,12.0,0.,12.0
1980-11-16 00:20:06.100 ,3,0,0.,12.0,0.,12.0,0.,12.0,0.,12.0
1980-11-16 00:20:18.100 ,3,0,0.,12.0,0.,12.0,0.,12.0,0.,12.0
1980-11-16 00:20:30.100 ,3,0,0.,12.0,0.,12.0,0.,12.0,0.,12.0
1980-11-16 00:20:42.100 ,2,0,0.,12.0,0.,12.0,0.,12.0,0.,12.0
1980-11-16 00:20:54.100 ,2,0,0.,12.0,0.,12.0,0.,12.0,0.,12.0
1980-11-16 00:21:06.100 ,2,0,0.,12.0,0.,12.0,0.,12.0,0.,12.0
1980-11-16 00:21:18.100 ,2,0,0.,12.0,0.,12.0,0.,12.0,0.,12.0
1980-11-16 00:21:30.100 ,1,0,0.,12.0,0.,12.0,0.,12.0,0.,12.0
1980-11-16 00:21:42.100 ,1,0,0.,12.0,0.,12.0,0.,12.0,0.,12.0
1980-11-16 00:21:54.100 ,1,0,0.,12.0,0.,12.0,0.,12.0,0.,12.0
1980-11-16 00:22:06.100 ,1,0,0.,12.0,0.,12.0,0.,12.0,0.,12.0
1980-11-16 00:22:18.100 ,0,0,0.,12.0,0.,12.0,0.,12.0,0.,12.0
1980-11-16 00:22:30.100 ,0,0,0.,12.0,0.,12.0,0.,12.0,0.,12.0
1980-11-16 00:22:42.100 ,0,0,0.,12.0,0.,12.0,0.,12.0,0.,12.0
1980-11-16 00:22:54.100 ,0,0,0.,12.0,0.,12.0,0.,12.0,0.,12.0
1980-11-16 00:23:06.100 ,0,0,0.,12.0,0.,12.0,0.,12.0,0.,12.0
1980-11-16 00:23:18.100 ,0,0,0.,12.0,0.,12.0,0.,12.0,0.,12.0
1980-11-16 00:23:30.100 ,0,0,0.,12.0,0.,12.0,0.,12.0,0.,12.0
1980-11-16 00:23:42.100 ,0,0,0.,12.0,0.,12.0,0.,12.0,0.,12.0
1980-11-16 00:23:54.100 ,1,0,0.,12.0,0.,12.0,0.,12.0,0.,12.0
1980-11-16 00:24:06.100 ,1,0,0.,12.0,0.,12.0,0.,12.0,0.,12.0
1980-11-16 00:24:18.100 ,1,0,0.,12.0,0.,12.0,0.,12.0,0.,12.0
1980-11-16 00:24:30.100 ,1,0,0.,12.0,0.,12.0,0.,12.0,0.,12.0
1980-11-16 00:24:42.100 ,2,0,0.,12.0,0.,12.0,0.,12.0,0.,12.0
1980-11-16 00:24:54.100 ,2,0,0.,12.0,0.,12.0,0.,12.0,0.,12.0
1980-11-16 00:25:06.100 ,2,0,0.,12.0,0.,12.0,0.,12.0,0.,12.0
1980-11-16 00:25:18.100 ,2,0,0.,12.0,0.,12.0,0.,12.0,0.,12.0
1980-11-16 00:25:30.100 ,3,0,0.,12.0,0.,12.0,0.,12.0,0.,12.0
1980-11-16 00:25:42.100 ,3,0,0.,12.0,0.,12.0,0.,12.0,0.,12.0
1980-11-16 00:25:54.100 ,3,0,0.,12.0,0.,12.0,0.,12.0,0.,12.0
1980-11-16 00:26:06.100 ,3,0,0.,12.0,0.,12.0,0.,12.0,0.,12.0
1980-11-16 00:26:18.100 ,4,0,0.,12.0,0.,12.0,0.,12.0,0.,12.0
1980-11-16 00:26:30.100 ,4,0,0.,12.0,0.,12.0,0.,12.0,0.,12.0
1980-11-16 00:26:42.100 ,4,0,0.,12.0,0.,12.0,0.,12.0,0.,12.0
1980-11-16 00:26:54.100 ,4,0,0.,12.0,0.,12.0,0.,12.0,0.,12.0
1980-11-16 00:27:06.100 ,5,0,0.,12.0,0.,12.0,0.,12.0,0.,12.0
1980-11-16 00:27:18.100 ,5,0,0.,12.0,0.,12.0,0.,12.0,0.,12.0
1980-11-16 00:27:30.100 ,5,0,0.,12.0,0.,12.0,0.,12.0,0.,12.0
1980-11-16 00:27:42.100 ,5,0,0.,12.0,0.,12.0,0.,12.0,0.,12.0
1980-11-16 00:27:54.100 ,6,0,0.,12.0,0.,12.0,0.,12.0,0.,12.0
1980-11-16 00:28:06.100 ,6,0,0.,12.0,0.,12.0,0.,12.0,0.,12.0
1980-11-16 00:28:18.100 ,6,0,0.,12.0,0.,12.0,0.,12.0,0.,12.0
1980-11-16 00:28:30.100 ,6,0,0.,12.0,0.,12.0,0.,12.0,0.,12.0
1980-11-16 00:28:42.100 ,7,0,0.,12.0,0.,12.0,0.,12.0,0.,12.0
1980-11-16 00:28:54.100 ,7,0,0.,12.0,0.,12.0,0.,12.0,0.,12.0
1980-11-16 00:29:06.100 ,7,0,0.,12.0,0.,12.0,0.,12.0,0.,12.0
1980-11-16 00:29:18.100 ,7,0,0.,12.0,0.,12.0,0.,12.0,0.,12.0
1980-11-16 00:29:30.100 ,7,0,0.,12.0,0.,12.0,0.,12.0,0.,12.0
1980-11-16 00:29:42.100 ,7,0,0.,12.0,0.,12.0,0.,12.0,0.,12.0
1980-11-16 00:29:54.100 ,7,0,0.,12.0,0.,12.0,0.,12.0,0.,12.0
1980-11-16 00:30:06.100 ,7,0,0.,12.0,0.,12.0,0.,12.0,0.,12.0
1980-11-16 00:30:18.100 ,6,0,0.,12.0,0.,12.0,0.,12.0,0.,12.0
1980-11-16 00:30:30.100 ,6,0,0.,12.0,0.,12.0,0.,12.0,0.,12.0
1980-11-16 00:30:42.100 ,6,0,0.,12.0,0.,12.0,0.,12.0,0.,12.0
1980-11-16 00:30:54.100 ,6,0,0.,12.0,0.,12.0,0.,12.0,0.,12.0
1980-11-16 00:31:06.100 ,5,0,0.,12.0,0.,12.0,0.,12.0,0.,12.0
1980-11-16 00:31:18.100 ,5,0,0.,12.0,0.,12.0,0.,12.0,0.,12.0
1980-11-16 00:31:30.100 ,5,0,0.,12.0,0.,12.0,0.,12.0,0.,12.0
1980-11-16 00:31:42.100 ,5,0,0.,12.0,0.,12.0,0.,12.0,0.,12.0
1980-11-16 00:31:54.100 ,4,0,0.,12.0,0.,12.0,0.,12.0,0.,12.0
1980-11-16 00:32:06.100 ,4,0,0.,12.0,0.,12.0,0.,12.0,0.,12.0
1980-11-16 00:32:18.100 ,4,0,0.,12.0,0.,12.0,0.,12.0,0.,12.0
1980-11-16 00:32:30.100 ,4,0,0.,12.0,0.,12.0,0.,12.0,0.,12.0
1980-11-16 00:32:42.100 ,3,0,0.,12.0,0.,12.0,0.,12.0,0.,12.0
1980-11-16 00:32:54.100 ,3,0,0.,12.0,0.,12.0,0.,12.0,0.,12.0
1980-11-16 00:33:06.100 ,3,0,0.,12.0,0.,12.0,0.,12.0,0.,12.0
1980-11-16 00:33:18.100 ,3,0,0.,12.0,0.,12.0,0.,12.0,0.,12.0
1980-11-16 00:33:30.100 ,2,0,0.,12.0,0.,12.0,0.,12.0,0.,12.0
1980-11-16 00:33:42.100 ,2,0,0.,12.0,0.,12.0,0.,12.0,0.,12.0
1980-11-16 00:33:54.100 ,2,0,0.,12.0,0.,12.0,0.,12.0,0.,12.0
1980-11-16 00:34:06.100 ,2,0,0.,12.0,0.,12.0,0.,12.0,0.,12.0
1980-11-16 00:34:18.100 ,1,1,0.,12.0,0.,12.0,0.,12.0,0.,12.0
1980-11-16 00:34:30.100 ,1,1,,0,,0,,0,,0
1980-11-16 00:34:42.100 ,1,0,0.,12.0,0.,12.0,0.,12.0,0.,12.0
1980-11-16 00:34:54.100 ,1,0,0.,12.0,0.,12.0,0.,12.0,0.,12.0
1980-11-16 00:35:06.100 ,0,0,0.,12.0,0.,12.0,0.,12.0,0.,12.0
1980-11-16 00:35:18.100 ,0,0,0.,12.0,0.,12.0,0.,12.0,0.,12.0
1980-11-16 00:35:30.100 ,0,0,0.,12.0,0.,12.0,0.,12.0,0.,12.0
1980-11-16 00:35:42.100 ,0,0,0.,12.0,0.,12.0,0.,12.0,0.,12.0
1980-11-16 00:35:54.100 ,0,0,0.,12.0,0.,12.0,0.,12.0,0.,12.0
1980-11-16 00:36:06.100 ,0,0,0.,12.0,0.,12.0,0.,12.0,0.,12.0
1980-11-16 00:36:18.100 ,0,0,0.,12.0,0.,12.0,0.,12.0,0.,12.0
1980-11-16 00:36:30.100 ,0,0,0.,12.0,0.,12.0,0.,12.0,0.,12.0
1980-11-16 00:36:42.100 ,1,0,0.,12.0,0.,12.0,0.,12.0,0.,12.0
1980-11-16 00:36:54.100 ,1,0,0.,12.0,0.,12.0,0.,12.0,0.,12.0
1980-11-16 00:37:06.100 ,1,0,0.,12.0,0.,12.0,0.,12.0,0.,12.0
1980-11-16 00:37:18.100 ,1,0,0.,12.0,0.,12.0,0.,12.0,0.,12.0
1980-11-16 00:37:30.100 ,2,0,0.,12.0,0.,12.0,0.,12.0,0.,12.0
1980-11-16 00:37:42.100 ,2,0,0.,12.0,0.,12.0,0.,12.0,0.,12.0
1980-11-16 00:37:54.100 ,2,0,0.,12.0,0.,12.0,0.,12.0,0.,12.0
1980-11-16 00:38:06.100 ,2,0,0.,12.0,0.,12.0,0.,12.0,0.,12.0
1980-11-16 00:38:18.100 ,3,0,0.,12.0,0.,12.0,0.,12.0,0.,12.0
1980-11-16 00:38:30.100 ,3,0,0.,12.0,0.,12.0,0.,12.0,0.,12.0
1980-11-16 00:38:42.100 ,0,0,0.,12.0,0.,12.0,0.,12.0,0.,12.0
1980-11-16 00:38:54.100 ,0,0,0.,12.0,0.,12.0,0.,12.0,0.,12.0
1980-11-16 00:39:06.100 ,4,0,0.,12.0,0.,12.0,0.,12.0,0.,12.0
1980-11-16 00:39:18.100 ,4,0,0.,12.0,0.,12.0,0.,12.0,0.,12.0
1980-11-16 00:39:30.100 ,4,0,0.,12.0,0.,12.0,0.,12.0,0.,12.0
1980-11-16 00:39:42.100 ,4,0,0.,12.0,0.,12.0,0.,12.0,0.,12.0
1980-11-16 00:39:54.100 ,5,0,0.,12.0,0.,12.0,0.,12.0,0.,12.0
1980-11-16 00:40:06.100 ,5,0,0.,12.0,0.,12.0,0.,12.0,0.,12.0
1980-11-16 00:40:18.100 ,5,0,0.,12.0,0.,12.0,0.,12.0,0.,12.0
1980-11-16 00:40:30.100 ,5,0,0.,12.0,0.,12.0,0.,12.0,0.,12.0
1980-11-16 00:40:42.100 ,6,0,0.,12.0,0.,12.0,0.,12.0,0.,12.0
1980-11-16 00:40:54.100 ,6,0,0.,12.0,0.,12.0,0.,12.0,0.,12.0
1980-11-16 00:41:06.100 ,6,0,0.,12.0,0.,12.0,0.,12.0,0.,12.0
1980-11-16 00:41:18.100 ,6,0,0.,12.0,0.,12.0,0.,12.0,0.,12.0
1980-11-16 00:41:30.100 ,7,0,0.,12.0,0.,12.0,0.,12.0,0.,12.0
1980-11-16 00:41:42.100 ,7,0,0.,12.0,0.,12.0,0.,12.0,0.,12.0
1980-11-16 00:41:54.100 ,7,0,0.,12.0,0.,12.0,0.,12.0,0.,12.0
1980-11-16 00:42:06.100 ,7,0,0.,12.0,0.,12.0,0.,12.0,0.,12.0
1980-11-16 00:42:18.100 ,7,0,0.,12.0,0.,12.0,0.,12.0,0.,12.0
1980-11-16 00:42:30.100 ,7,0,0.,12.0,0.,12.0,0.,12.0,0.,12.0
1980-11-16 00:42:42.100 ,7,0,0.,12.0,0.,12.0,0.,12.0,0.,12.0
1980-11-16 00:42:54.100 ,7,0,0.,12.0,0.,12.0,0.,12.0,0.,12.0
1980-11-16 00:43:06.100 ,6,0,0.,12.0,0.,12.0,0.,12.0,0.,12.0
1980-11-16 00:43:18.100 ,6,0,0.,12.0,0.,12.0,0.,12.0,0.,12.0
1980-11-16 00:43:30.100 ,6,0,0.,12.0,0.,12.0,0.,12.0,0.,12.0
1980-11-16 00:43:42.100 ,6,0,0.,12.0,0.,12.0,0.,12.0,0.,12.0
1980-11-16 00:43:54.100 ,5,0,0.,12.0,0.,12.0,0.,12.0,0.,12.0
1980-11-16 00:44:06.100 ,5,0,0.,12.0,0.,12.0,0.,12.0,0.,12.0
1980-11-16 00:44:18.100 ,5,0,0.,12.0,0.,12.0,0.,12.0,0.,12.0
1980-11-16 00:44:30.100 ,5,0,0.,12.0,0.,12.0,0.,12.0,0.,12.0
1980-11-16 00:44:42.100 ,4,0,0.,12.0,0.,12.0,0.,12.0,0.,12.0
1980-11-16 00:44:54.100 ,4,0,0.,12.0,0.,12.0,0.,12.0,0.,12.0
1980-11-16 00:45:06.100 ,4,0,0.,12.0,0.,12.0,0.,12.0,0.,12.0
1980-11-16 00:45:18.100 ,4,0,0.,12.0,0.,12.0,0.,12.0,0.,12.0
1980-11-16 00:45:30.100 ,3,0,0.,12.0,0.,12.0,0.,12.0,0.,12.0
1980-11-16 00:45:42.100 ,3,0,0.,12.0,0.,12.0,0.,12.0,0.,12.0
1980-11-16 00:45:54.100 ,0,0,0.,12.0,0.,12.0,0.,12.0,0.,12.0
1980-11-16 00:46:06.100 ,0,0,0.,12.0,0.,12.0,0.,12.0,0.,12.0
1980-11-16 00:46:34.300 ,0,0,,0,,0,,0,,0
1980-11-16 00:46:46.300 ,0,0,0.,12.0,0.,12.0,0.,12.0,0.,12.0
1980-11-16 00:46:42.100 ,0,0,0.,12.0,0.,12.0,0.,12.0,0.,12.0
1980-11-16 00:46:54.100 ,0,0,1.,12.0,0.,12.0,0.,12.0,0.,12.0
1980-11-16 00:47:06.100 ,1,0,0.,12.0,0.,12.0,0.,12.0,0.,12.0
1980-11-16 00:47:18.100 ,1,0,0.,12.0,0.,12.0,0.,12.0,0.,12.0
1980-11-16 00:47:30.100 ,1,0,0.,12.0,0.,12.0,0.,12.0,0.,12.0
1980-11-16 00:47:42.100 ,1,0,0.,12.0,0.,12.0,0.,12.0,0.,12.0
1980-11-16 00:47:54.100 ,0,0,0.,12.0,0.,12.0,0.,12.0,0.,12.0
1980-11-16 00:48:06.100 ,0,0,0.,12.0,0.,12.0,0.,12.0,0.,12.0
1980-11-16 00:48:18.100 ,0,0,0.,12.0,0.,12.0,0.,12.0,0.,12.0
1980-11-16 00:48:30.100 ,0,0,0.,12.0,0.,12.0,0.,12.0,0.,12.0
1980-11-16 00:48:42.100 ,0,0,0.,12.0,0.,12.0,0.,12.0,0.,12.0
1980-11-16 00:48:54.100 ,0,0,0.,12.0,0.,12.0,0.,12.0,0.,12.0
1980-11-16 00:49:06.100 ,0,0,0.,12.0,0.,12.0,0.,12.0,0.,12.0
1980-11-16 00:49:18.100 ,0,0,0.,12.0,0.,12.0,0.,12.0,0.,12.0
1980-11-16 00:49:30.100 ,1,0,0.,12.0,0.,12.0,0.,12.0,0.,12.0
1980-11-16 00:49:42.100 ,1,0,0.,12.0,0.,12.0,0.,12.0,0.,12.0
1980-11-16 00:49:54.100 ,1,0,0.,12.0,0.,12.0,0.,12.0,0.,12.0
1980-11-16 00:50:06.100 ,1,0,0.,12.0,0.,12.0,0.,12.0,0.,12.0
1980-11-16 00:50:18.100 ,2,0,0.,12.0,0.,12.0,0.,12.0,0.,12.0
1980-11-16 00:50:30.100 ,2,0,0.,12.0,0.,12.0,0.,12.0,0.,12.0
1980-11-16 00:50:42.100 ,2,0,0.,12.0,0.,12.0,0.,12.0,0.,12.0
1980-11-16 00:50:54.100 ,2,0,0.,12.0,0.,12.0,0.,12.0,0.,12.0
1980-11-16 00:51:06.100 ,3,0,0.,12.0,0.,12.0,0.,12.0,0.,12.0
1980-11-16 00:51:18.100 ,3,0,0.,12.0,0.,12.0,0.,12.0,0.,12.0
1980-11-16 00:51:30.100 ,3,0,0.,12.0,0.,12.0,0.,12.0,0.,12.0
1980-11-16 00:51:42.100 ,3,0,0.,12.0,0.,12.0,0.,12.0,0.,12.0
1980-11-16 00:51:54.100 ,4,0,0.,12.0,0.,12.0,0.,12.0,0.,12.0
1980-11-16 00:52:06.100 ,4,0,0.,12.0,0.,12.0,0.,12.0,0.,12.0
1980-11-16 00:52:18.100 ,4,0,0.,12.0,0.,12.0,0.,12.0,0.,12.0
1980-11-16 00:52:30.100 ,4,0,0.,12.0,0.,12.0,0.,12.0,0.,12.0
1980-11-16 00:52:42.100 ,5,0,0.,12.0,0.,12.0,0.,12.0,0.,12.0
1980-11-16 00:52:54.100 ,5,0,0.,12.0,0.,12.0,0.,12.0,0.,12.0
1980-11-16 00:53:06.100 ,5,0,0.,12.0,0.,12.0,0.,12.0,0.,12.0
1980-11-16 00:53:18.100 ,5,0,0.,12.0,0.,12.0,0.,12.0,0.,12.0
1980-11-16 00:53:30.100 ,6,0,0.,12.0,0.,12.0,0.,12.0,0.,12.0
1980-11-16 00:53:42.100 ,6,0,0.,12.0,0.,12.0,0.,12.0,0.,12.0
1980-11-16 00:53:54.100 ,6,0,0.,12.0,0.,12.0,0.,12.0,0.,12.0
1980-11-16 00:54:06.100 ,6,0,0.,12.0,0.,12.0,0.,12.0,0.,12.0
1980-11-16 00:54:18.100 ,7,0,0.,12.0,0.,12.0,0.,12.0,0.,12.0
1980-11-16 00:54:30.100 ,7,0,0.,12.0,0.,12.0,0.,12.0,0.,12.0
1980-11-16 00:54:42.100 ,7,0,0.,12.0,0.,12.0,0.,12.0,0.,12.0
1980-11-16 00:54:54.100 ,7,0,0.,12.0,0.,12.0,0.,12.0,0.,12.0
1980-11-16 00:55:06.100 ,7,0,0.,12.0,0.,12.0,0.,12.0,0.,12.0
1980-11-16 00:55:18.100 ,7,0,0.,12.0,0.,12.0,0.,12.0,0.,12.0
1980-11-16 00:55:30.100 ,7,0,0.,12.0,0.,12.0,0.,12.0,0.,12.0
1980-11-16 00:55:42.100 ,7,0,0.,12.0,0.,12.0,0.,12.0,0.,12.0
1980-11-16 00:55:54.100 ,6,0,0.,12.0,0.,12.0,0.,12.0,0.,12.0
1980-11-16 00:56:06.100 ,6,0,0.,12.0,0.,12.0,0.,12.0,0.,12.0
1980-11-16 00:56:18.100 ,0,0,0.,12.0,0.,12.0,0.,12.0,0.,12.0
1980-11-16 00:56:30.100 ,0,0,0.,12.0,0.,12.0,0.,12.0,0.,12.0
1980-11-16 00:59:12.100 ,0,0,0.,12.0,0.,12.0,0.,12.0,0.,12.0
1980-11-16 00:59:24.100 ,0,0,0.,12.0,0.,12.0,0.,12.0,0.,12.0
1980-11-16 00:59:30.100 ,0,0,0.,12.0,0.,12.0,0.,12.0,0.,12.0
1980-11-16 00:59:42.100 ,0,0,0.,12.0,0.,12.0,0.,12.0,0.,12.0
1980-11-16 00:59:54.100 ,1,0,0.,12.0,0.,12.0,0.,12.0,0.,12.0
1980-11-16 01:00:06.100 ,1,0,0.,12.0,0.,12.0,0.,12.0,0.,12.0
1980-11-16 01:00:18.100 ,1,0,0.,12.0,0.,12.0,0.,12.0,0.,12.0
1980-11-16 01:00:30.100 ,1,0,0.,12.0,0.,12.0,0.,12.0,0.,12.0
1980-11-16 01:00:42.100 ,0,0,0.,12.0,0.,12.0,0.,12.0,0.,12.0
1980-11-16 01:00:54.100 ,0,0,0.,12.0,0.,12.0,0.,12.0,0.,12.0
1980-11-16 01:01:06.100 ,0,0,0.,12.0,0.,12.0,0.,12.0,0.,12.0
1980-11-16 01:01:18.100 ,0,0,0.,12.0,0.,12.0,0.,12.0,0.,12.0
1980-11-16 01:01:30.100 ,0,0,0.,12.0,0.,12.0,0.,12.0,0.,12.0
1980-11-16 01:01:42.100 ,0,0,0.,12.0,0.,12.0,0.,12.0,0.,12.0
1980-11-16 01:01:54.100 ,0,0,0.,12.0,0.,12.0,0.,12.0,0.,12.0
1980-11-16 01:02:06.100 ,0,0,0.,12.0,0.,12.0,0.,12.0,0.,12.0
1980-11-16 01:02:18.100 ,1,0,0.,12.0,0.,12.0,0.,12.0,0.,12.0
1980-11-16 01:02:30.100 ,1,0,0.,12.0,0.,12.0,0.,12.0,0.,12.0
1980-11-16 01:02:42.100 ,1,0,0.,12.0,0.,12.0,0.,12.0,0.,12.0
1980-11-16 01:02:54.100 ,1,0,0.,12.0,0.,12.0,0.,12.0,0.,12.0
1980-11-16 01:03:06.100 ,2,0,0.,12.0,0.,12.0,0.,12.0,0.,12.0
1980-11-16 01:03:18.100 ,2,0,0.,12.0,0.,12.0,0.,12.0,0.,12.0
1980-11-16 01:03:30.100 ,2,0,0.,12.0,0.,12.0,0.,12.0,0.,12.0
1980-11-16 01:03:42.100 ,2,0,0.,12.0,0.,12.0,0.,12.0,0.,12.0
1980-11-16 01:03:54.100 ,3,0,0.,12.0,0.,12.0,0.,12.0,0.,12.0
1980-11-16 01:04:06.100 ,3,0,0.,12.0,0.,12.0,0.,12.0,0.,12.0
1980-11-16 01:04:18.100 ,3,0,0.,12.0,0.,12.0,0.,12.0,0.,12.0
1980-11-16 01:04:30.100 ,3,0,0.,12.0,0.,12.0,0.,12.0,0.,12.0
1980-11-16 01:04:42.100 ,4,0,0.,12.0,0.,12.0,0.,12.0,0.,12.0
1980-11-16 01:04:54.100 ,4,0,0.,12.0,0.,12.0,0.,12.0,0.,12.0
1980-11-16 01:05:06.100 ,4,0,0.,12.0,0.,12.0,0.,12.0,0.,12.0
1980-11-16 01:05:18.100 ,4,0,0.,12.0,0.,12.0,0.,12.0,0.,12.0
1980-11-16 01:05:30.100 ,5,0,0.,12.0,0.,12.0,0.,12.0,0.,12.0
1980-11-16 01:05:42.100 ,5,0,0.,12.0,0.,12.0,0.,12.0,0.,12.0
1980-11-16 01:05:54.100 ,5,0,0.,12.0,0.,12.0,0.,12.0,0.,12.0
1980-11-16 01:06:06.100 ,5,0,0.,12.0,0.,12.0,0.,12.0,0.,12.0
1980-11-16 01:06:18.100 ,6,0,0.,12.0,0.,12.0,0.,12.0,0.,12.0
1980-11-16 01:06:30.100 ,6,0,0.,12.0,0.,12.0,0.,12.0,0.,12.0
1980-11-16 01:06:42.100 ,6,0,0.,12.0,0.,12.0,0.,12.0,0.,12.0
1980-11-16 01:06:54.100 ,6,0,0.,12.0,0.,12.0,0.,12.0,0.,12.0
1980-11-16 01:07:06.100 ,7,0,0.,12.0,0.,12.0,0.,12.0,0.,12.0
1980-11-16 01:07:18.100 ,7,0,0.,12.0,0.,12.0,0.,12.0,0.,12.0
1980-11-16 01:07:30.100 ,7,0,0.,12.0,0.,12.0,0.,12.0,0.,12.0
1980-11-16 01:07:42.100 ,7,0,0.,12.0,0.,12.0,0.,12.0,0.,12.0
1980-11-16 01:07:54.100 ,7,0,0.,12.0,0.,12.0,0.,12.0,0.,12.0
1980-11-16 01:08:06.100 ,7,0,0.,12.0,0.,12.0,0.,12.0,0.,12.0
1980-11-16 01:08:18.100 ,7,0,0.,12.0,0.,12.0,0.,12.0,0.,12.0
1980-11-16 01:08:30.100 ,7,0,0.,12.0,0.,12.0,0.,12.0,0.,12.0
1980-11-16 01:08:42.100 ,6,0,0.,12.0,0.,12.0,0.,12.0,0.,12.0
1980-11-16 01:08:54.100 ,6,0,0.,12.0,0.,12.0,0.,12.0,0.,12.0
1980-11-16 01:09:06.100 ,6,0,0.,12.0,0.,12.0,0.,12.0,0.,12.0
1980-11-16 01:09:18.100 ,6,0,0.,12.0,0.,12.0,0.,12.0,0.,12.0
1980-11-16 01:09:30.100 ,5,0,0.,12.0,0.,12.0,0.,12.0,0.,12.0
1980-11-16 01:09:42.100 ,5,0,0.,12.0,0.,12.0,0.,12.0,0.,12.0
1980-11-16 01:09:54.100 ,5,0,0.,12.0,0.,12.0,0.,12.0,0.,12.0
1980-11-16 01:10:06.100 ,5,0,0.,12.0,0.,12.0,0.,12.0,0.,12.0
1980-11-16 01:10:18.100 ,4,0,0.,12.0,0.,12.0,0.,12.0,0.,12.0
1980-11-16 01:10:30.100 ,4,0,0.,12.0,0.,12.0,0.,12.0,0.,12.0
1980-11-16 01:10:42.100 ,4,0,0.,12.0,0.,12.0,0.,12.0,0.,12.0
1980-11-16 01:10:54.100 ,4,0,0.,12.0,0.,12.0,0.,12.0,0.,12.0
1980-11-16 01:11:06.100 ,3,0,0.,12.0,0.,12.0,0.,12.0,0.,12.0
1980-11-16 01:11:18.100 ,3,0,0.,12.0,0.,12.0,0.,12.0,0.,12.0
1980-11-16 01:11:30.100 ,3,0,0.,12.0,0.,12.0,0.,12.0,0.,12.0
1980-11-16 01:11:42.100 ,3,0,0.,12.0,0.,12.0,0.,12.0,0.,12.0
1980-11-16 01:11:54.100 ,2,0,0.,12.0,0.,12.0,0.,12.0,0.,12.0
1980-11-16 01:12:06.100 ,2,0,0.,12.0,0.,12.0,0.,12.0,0.,12.0
1980-11-16 01:12:18.100 ,2,0,0.,12.0,0.,12.0,0.,12.0,0.,12.0
1980-11-16 01:12:30.100 ,2,0,0.,12.0,0.,12.0,0.,12.0,0.,12.0
1980-11-16 01:12:42.100 ,1,0,0.,12.0,0.,12.0,0.,12.0,0.,12.0
1980-11-16 01:12:54.100 ,1,0,0.,12.0,0.,12.0,0.,12.0,0.,12.0
1980-11-16 01:13:06.100 ,1,0,0.,12.0,0.,12.0,0.,12.0,0.,12.0
1980-11-16 01:13:18.100 ,1,0,0.,12.0,0.,12.0,0.,12.0,0.,12.0
1980-11-16 01:13:30.100 ,0,0,0.,12.0,0.,12.0,0.,12.0,0.,12.0
1980-11-16 01:13:42.100 ,0,0,0.,12.0,0.,12.0,0.,12.0,0.,12.0
1980-11-16 01:13:54.100 ,0,0,0.,12.0,0.,12.0,0.,12.0,0.,12.0
1980-11-16 01:14:06.100 ,0,0,0.,12.0,0.,12.0,0.,12.0,0.,12.0
1980-11-16 01:14:18.100 ,0,0,0.,12.0,0.,12.0,0.,12.0,0.,12.0
1980-11-16 01:14:30.100 ,0,0,0.,12.0,0.,12.0,0.,12.0,0.,12.0
1980-11-16 01:14:42.100 ,0,0,0.,12.0,0.,12.0,0.,12.0,0.,12.0
1980-11-16 01:14:54.100 ,0,0,0.,12.0,0.,12.0,0.,12.0,0.,12.0
1980-11-16 01:15:06.100 ,1,0,0.,12.0,0.,12.0,0.,12.0,0.,12.0
1980-11-16 01:15:18.100 ,1,0,0.,12.0,0.,12.0,0.,12.0,0.,12.0
1980-11-16 01:15:30.100 ,1,0,0.,12.0,0.,12.0,0.,12.0,0.,12.0
1980-11-16 01:15:42.100 ,1,0,0.,12.0,0.,12.0,0.,12.0,0.,12.0
1980-11-16 01:15:54.100 ,2,0,0.,12.0,0.,12.0,0.,12.0,0.,12.0
1980-11-16 01:16:06.100 ,2,0,0.,12.0,0.,12.0,0.,12.0,0.,12.0
1980-11-16 01:16:18.100 ,2,0,0.,12.0,0.,12.0,0.,12.0,0.,12.0
1980-11-16 01:16:30.100 ,2,0,0.,12.0,0.,12.0,0.,12.0,0.,12.0
1980-11-16 01:16:42.100 ,3,0,0.,12.0,0.,12.0,0.,12.0,0.,12.0
1980-11-16 01:16:54.100 ,3,0,0.,12.0,0.,12.0,0.,12.0,0.,12.0
1980-11-16 01:17:06.100 ,3,0,0.,12.0,0.,12.0,0.,12.0,0.,12.0
1980-11-16 01:17:18.100 ,3,0,0.,12.0,0.,12.0,0.,12.0,0.,12.0
1980-11-16 01:17:30.100 ,4,0,0.,12.0,0.,12.0,0.,12.0,0.,12.0
1980-11-16 01:17:42.100 ,4,0,0.,12.0,0.,12.0,0.,12.0,0.,12.0
1980-11-16 01:17:54.100 ,4,0,0.,12.0,0.,12.0,0.,12.0,0.,12.0
1980-11-16 01:18:06.100 ,4,0,0.,12.0,0.,12.0,0.,12.0,0.,12.0
1980-11-16 01:18:18.100 ,5,0,0.,12.0,0.,12.0,0.,12.0,0.,12.0
1980-11-16 01:18:30.100 ,5,0,0.,12.0,0.,12.0,0.,12.0,0.,12.0
1980-11-16 01:18:42.100 ,5,0,0.,12.0,0.,12.0,0.,12.0,0.,12.0
1980-11-16 01:18:54.100 ,5,0,0.,12.0,0.,12.0,0.,12.0,0.,12.0
1980-11-16 01:19:06.100 ,6,0,0.,12.0,0.,12.0,0.,12.0,0.,12.0
1980-11-16 01:19:18.100 ,6,0,0.,12.0,0.,12.0,0.,12.0,0.,12.0
1980-11-16 01:19:30.100 ,6,0,0.,12.0,0.,12.0,0.,12.0,0.,12.0
1980-11-16 01:19:42.100 ,6,0,0.,12.0,0.,12.0,0.,12.0,0.,12.0
1980-11-16 01:19:54.100 ,7,0,0.,12.0,0.,12.0,0.,12.0,0.,12.0
1980-11-16 01:20:06.100 ,7,0,0.,12.0,0.,12.0,0.,12.0,0.,12.0